This is the latest recevied weather packets stored in our database for station/object WA1RYQ. If no packets are shown the sender has not sent any weather packets the latest 10 day(s).
| Time | Temp. | Humidity | Pressure | Rain* | Wind** | Luminosity | Snow |
|---|---|---|---|---|---|---|---|
| 1777497959 | 26.67° C | 77% | 1013.1 hPa | 0 mm | - | 105 W/m² | - |
| 1777497619 | 26.67° C | 77% | 1013.1 hPa | 0 mm | - | 415 W/m² | - |
| 1777497340 | 26.67° C | 77% | 1013.1 hPa | 0 mm | - | 517 W/m² | - |
| 1777497056 | 26.67° C | 77% | 1013.1 hPa | 0 mm | - | 527 W/m² | - |
| 1777496712 | 26.67° C | 76% | 1013.3 hPa | 0 mm | - | 541 W/m² | - |
| 1777496148 | 27.22° C | 76% | 1013.4 hPa | 0 mm | - | 578 W/m² | - |
| 1777495518 | 27.22° C | 76% | 1013.6 hPa | 0 mm | - | 613 W/m² | - |
| 1777494050 | 27.22° C | 73% | 1014.1 hPa | 0 mm | - | 656 W/m² | - |
| 1777493706 | 27.78° C | 73% | 1014.1 hPa | 0 mm | - | 654 W/m² | - |
| 1777492858 | 27.78° C | 72% | 1014.4 hPa | 0 mm | - | 631 W/m² | - |
| 1777491962 | 27.78° C | 73% | 1014.8 hPa | 0 mm | - | 673 W/m² | - |
| 1777491058 | 27.22° C | 74% | 1015 hPa | 0 mm | - | 789 W/m² | - |
| 1777489212 | 27.78° C | 72% | 1015.7 hPa | 0 mm | - | 856 W/m² | - |
| 1777487146 | 27.22° C | 71% | 1016.1 hPa | 0 mm | - | 889 W/m² | - |
| 1777486526 | 27.78° C | 71% | 1016.1 hPa | 0 mm | - | 895 W/m² | - |
| 1777485344 | 26.67° C | 71% | 1016.4 hPa | 0 mm | - | 909 W/m² | - |
| 1777484728 | 27.78° C | 69% | 1016.4 hPa | 0 mm | - | 914 W/m² | - |
| 1777484444 | 27.78° C | 72% | 1016.5 hPa | 0 mm | - | 912 W/m² | - |
| 1777482317 | 27.22° C | 73% | 1016.9 hPa | 0 mm | - | 902 W/m² | - |
| 1777481424 | 27.22° C | 72% | 1017.1 hPa | 0 mm | - | 895 W/m² | - |
| 1777481162 | 26.67° C | 72% | 1017.2 hPa | 0 mm | - | 891 W/m² | - |
| 1777480826 | 27.22° C | 72% | 1017.3 hPa | 0 mm | - | 888 W/m² | - |
| 1777480267 | 27.22° C | 70% | 1017.2 hPa | 0 mm | - | 881 W/m² | - |
| 1777479640 | 27.78° C | 71% | 1017.4 hPa | 0 mm | - | 837 W/m² | - |
| 1777479372 | 27.78° C | 70% | 1017.5 hPa | 0 mm | - | 872 W/m² | - |
* Rain latest hour (hover to see other rain measurements)
** Current wind speed in m/s (hover to see current wind gust speed)